SCP
0 0 0 0 0 0 0 0 0 0 0 0 0 0 0 0 0 0 0 0 0 0 0 0 0 0 0 0 0 0 0 0 0 0 0 0 0 0 0 0 0 0 0 0
0 0 0 0 0 0 0 0 0 0 0 0 0 0 0 0 0 0 0 0 0 0 0 0 0 0 0 0 0 0 0 0 0 0 0 0 0 0 0 0 0 0 0 0
0 0 0 0 0 0 0 0 0 0 0 0 0 0 0 0 0 0 0 0 0 0 0 0 0 0 0 0 0 0 0 0 0 0 0 0 0 0 0 0 0 0 0 0
0 0 0 0 0 0 0 0 0 0 0 0 0 0 0 0 0 0 0 0 0 0 0 0 0 0 0 0 0 0 0 0 0 0 0 0 0 0 0 0 0 0 0 0
0 0 0 0 0 0 0 0 0 0 0 0 0 0 0 0 0 0 0 0 0 0 0 0 0 0 0 0 0 0 0 0 0 0 0 0 0 0 0 0 0 0 0 0
0 0 0 0 0 0 0 0 0 0 0 0 0 0 0 0 0 0 0 0 0 0 0 0 0 0 0 0 0 0 0 0 0 0 0 0 0 0 0 0 0 0 0 0
0 0 0 0 0 0 0 0 0 0 0 0 0 0 0 0 0 0 0 0 0 0 0 0 0 0 0 0 0 0 0 0 0 0 0 0 0 0 0 0 0 0 0 0
0 0 0 0 0 0 0 0 0 0 0 0 0 0 0 0 0 0 0 0 0 0 0 0 0 0 0 0 0 0 0 0 0 0 0 0 0 0 0 0 0 0 0 0
0 0 0 0 0 0 0 0 0 0 0 0 0 0 0 0 0 0 0 0 0 0 0 0 0 0 0 0 0 0 0 0 0 0 0 0 0 0 0 0 0 0 0 0
0 0 0 0 0 0 0 0 0 0 0 0 0 0 0 0 0 0 0 0 0 0 0 0 -0 -0 -0 0 0 0 0 0 0 0 0 0 0 0 0 0 0 0 0 0
0 0 0 0 0 0 0 0 0 0 0 0 0 0 0 0 0 0 0 0 0 0 0 0 0 -0 -0 -0 0 0 0 0 0 0 0 0 0 0 0 0 0 0 0 0
0 0 0 0 0 0 0 0 0 0 0 0 0 0 0 0 0 0 0 0 0 0 0 0 0 0 -0 -0 0 0 0 0 0 0 0 0 0 0 0 0 0 0 0 0
0 0 0 0 0 0 0 0 0 0 0 0 0 0 0 0 0 0 0 0 0 0 0 0 0 0 -0 -0 0 0 0 0 0 0 0 0 0 0 0 0 0 0 0 0
0 0 0 0 0 0 0 0 0 0 0 0 0 0 0 0 0 0 0 0 0 0 0 0 0 0 0 -0 0 0 0 0 0 0 0 0 0 0 0 0 0 0 0 0
0 0 0 0 0 0 0 0 0 0 0 0 0 0 0 0 0 0 0 0 0 0 0 0 0 0 0 -0 0 0 0 0 -0 0 0 0 0 0 0 0 0 0 0 0
0 0 0 0 0 0 0 0 0 0 0 0 0 0 0 0 0 0 0 0 0 0 0 0 0 0 0 0 0 0 -0 -0 0 0 0 -0 0 0 0 0 0 0 0 0
0 0 0 0 0 0 0 0 0 0 0 0 0 0 0 0 0 0 0 0 0 0 0 0 0 0 0 0 0 0 -0 -0 -0 -0 -0 0 0 0 0 0 0 0 0 0
0 0 0 0 0 0 0 0 0 0 0 0 0 0 0 0 0 0 0 0 0 0 0 0 0 0 0 0 0 0 0 0 -0 0 0 0 0 0 0 0 0 0 0 0
0 0 0 0 0 0 0 0 0 0 0 0 0 0 0 0 0 0 0 0 0 0 0 0 0 0 0 0 0 0 0 0 0 -0 -0 -0 0 -0 0 0 0 0 0 0
0 0 0 0 0 0 0 0 0 0 0 0 0 0 0 0 0 0 0 0 0 0 0 0 0 0 0 0 0 0 0 0 0 0 0 0 0 0 -0 -0 0 0 0 0
0 0 0 0 0 0 0 0 0 0 0 0 0 0 0 0 0 0 0 0 0 0 0 0 0 0 0 0 0 0 0 0 0 0 0 0 0 0 0 0 -0 -0 0 0
0 0 0 0 0 0 0 0 0 0 0 0 0 0 0 0 0 0 0 0 0 0 0 0 0 0 0 0 0 0 0 0 0 0 0 0 0 0 0 0 -0 -0 0 0
0 0 0 0 0 0 0 0 0 0 0 0 0 0 0 0 0 0 0 0 0 0 0 0 0 0 0 0 0 0 0 0 0 0 0 0 0 0 0 0 0 0 0 0
0 0 0 0 0 0 0 0 0 0 0 0 0 0 0 0 0 0 0 0 0 0 0 0 0 0 0 0 0 0 0 0 0 0 0 0 0 0 0 0 0 0 0 0
0 0 0 0 0 0 0 0 0 0 0 0 0 0 0 0 0 0 0 0 0 0 0 0 0 0 0 0 0 0 0 0 0 0 0 0 0 0 0 0 0 0 0 0
0 0 0 0 0 0 0 0 0 0 0 0 0 0 0 0 0 0 0 0 0 0 0 0 0 0 0 0 0 0 0 0 0 0 0 0 0 0 0 0 0 0 0 0
0 0 0 0 0 0 0 0 0 0 0 0 0 0 0 0 0 0 0 0 0 0 0 0 0 0 0 0 0 0 0 0 0 0 0 0 0 0 0 0 0 0 0 0
Wind_Speed_500mb
10 10 6 8 11 18 16 15 7 7 10 13 13 13 13 13 8 2 6 9 10 17 24 16 27 31 32 34 40 40 45 45 49 47 46 48 38 48 52 53 42 47 42 48
7 12 8 10 16 17 22 18 24 28 27 17 23 17 15 18 10 2 5 6 8 15 21 16 25 29 28 33 38 38 42 42 45 47 46 53 33 38 49 50 49 53 46 40
5 7 9 15 25 23 13 16 11 12 7 24 11 16 17 19 14 7 5 5 7 13 17 17 20 24 21 28 35 37 39 40 45 47 46 48 43 43 46 52 43 52 58 49
6 2 5 4 6 2 21 12 24 6 14 20 10 16 16 21 20 11 9 5 5 14 11 14 10 16 15 20 27 32 36 39 43 46 46 42 43 44 45 47 52 43 53 58
4 6 10 4 8 11 14 13 29 18 23 24 19 12 17 25 23 17 10 7 8 11 15 12 10 13 14 17 22 28 34 38 40 44 43 44 42 42 43 42 44 51 47 53
3 5 10 3 10 7 8 9 16 36 31 38 28 5 7 37 22 12 8 8 12 16 9 5 11 10 13 14 20 26 33 36 37 40 40 43 42 41 40 38 42 38 45 42
6 6 13 9 25 18 5 11 28 38 45 49 15 12 30 30 22 15 10 11 13 14 6 4 9 8 9 11 16 23 28 31 32 35 38 39 39 40 45 39 36 40 37 46
6 4 16 41 15 14 8 19 35 37 46 45 27 27 27 25 22 14 11 11 10 14 5 4 9 9 8 8 11 19 25 26 27 30 31 37 39 38 44 44 44 45 44 45
18 12 4 66 5 35 21 30 36 40 41 44 39 31 29 26 22 17 14 15 16 16 10 2 12 10 8 6 7 15 22 22 24 26 27 29 36 39 43 46 49 51 52 53
4 9 20 46 34 25 27 26 35 36 41 44 39 35 31 27 24 19 17 16 19 18 13 15 11 9 8 6 5 9 15 18 21 20 23 24 28 34 40 45 47 49 51 54
10 6 8 28 62 46 36 32 38 38 41 42 38 36 32 29 25 23 21 18 20 19 20 16 9 9 9 5 3 5 7 11 15 17 21 23 25 28 31 35 41 46 48 49
13 28 16 13 40 60 53 50 48 47 47 42 40 38 34 28 25 25 24 20 20 22 21 16 12 9 10 6 5 5 5 9 12 15 17 19 21 23 26 29 33 37 42 43
8 19 26 11 16 47 56 56 52 49 43 49 44 40 35 30 25 23 28 23 20 23 22 20 14 11 12 9 8 4 8 9 11 13 15 18 19 23 27 25 29 33 36 38
40 27 15 26 26 46 49 55 52 48 46 45 44 40 37 30 25 24 26 19 20 22 23 24 20 14 13 10 10 7 8 10 13 14 15 17 20 20 22 26 26 27 28 33
50 48 37 24 28 48 51 60 62 60 58 55 50 44 42 35 27 23 25 21 21 21 22 23 23 18 15 14 14 10 11 12 14 16 17 17 18 19 21 21 22 24 24 25
53 49 39 32 43 54 62 68 70 70 66 61 58 52 43 33 26 23 26 23 23 23 23 24 24 22 18 16 15 14 14 14 13 14 17 18 19 20 20 22 23 26 29 32
49 48 52 54 60 68 75 73 74 73 70 67 61 54 46 39 32 27 25 22 22 22 24 25 23 21 18 15 14 15 15 16 15 14 16 18 18 21 23 24 25 25 28 30
73 66 63 60 73 74 75 75 75 74 73 66 61 59 52 46 35 28 26 23 22 23 24 24 23 22 19 18 17 13 14 15 16 16 17 17 17 18 21 25 29 31 29 28
74 71 69 61 63 68 75 78 80 77 73 69 68 65 54 43 36 29 27 24 23 23 21 23 23 23 20 19 17 15 16 16 16 17 19 18 19 20 22 23 24 25 27 29
69 71 73 61 61 67 73 77 78 82 77 74 71 65 59 49 42 34 28 24 21 20 22 18 19 20 19 18 18 18 16 17 18 19 20 19 20 20 21 23 25 27 28 29
57 66 73 72 68 67 72 76 82 88 84 79 77 71 63 54 43 36 32 27 21 20 19 18 17 17 18 19 18 18 17 17 17 19 20 20 22 24 24 24 25 27 29 29
48 57 66 70 70 74 74 76 82 85 85 83 77 70 66 57 48 39 30 26 21 19 18 16 18 18 16 18 19 17 15 16 16 17 19 20 21 23 24 26 28 28 30 31
42 48 60 70 76 77 76 81 85 87 88 87 83 77 72 61 52 47 39 30 23 22 19 17 15 13 15 12 13 13 13 11 12 15 17 20 22 24 26 27 27 26 28 29
38 45 55 63 69 74 82 85 87 87 85 84 79 74 71 66 54 43 35 28 24 22 21 18 13 10 9 9 7 6 6 7 10 12 14 17 20 21 21 22 23 24 26 28
37 45 56 67 76 81 83 88 90 88 86 85 82 76 69 61 52 46 38 32 28 25 22 18 13 10 10 9 8 7 5 2 3 5 9 11 14 18 20 22 24 26 27 28
40 46 55 63 73 79 86 90 95 95 94 93 87 81 75 68 58 48 42 36 32 28 24 20 17 16 15 13 11 10 8 9 11 11 13 15 18 19 21 24 25 27 30 31
37 39 45 57 63 72 84 90 95 100 102 100 96 90 83 76 65 54 48 42 37 32 28 24 21 21 20 18 16 14 12 12 11 11 13 17 21 23 24 25 27 30 32 32
Wind_Direction_500mb
295 126 184 250 193 182 209 231 189 214 297 312 125 137 127 153 174 38 337 338 336 335 331 8 4 354 1 3 360 8 6 1 359 5 4 2 21 10 7 17 20 12 19 28
287 127 211 256 235 202 204 240 270 271 283 112 120 135 163 176 168 189 302 332 327 329 332 1 7 346 2 7 2 13 4 4 3 6 9 1 12 24 10 10 3 15 22 28
262 181 265 281 224 195 197 189 198 221 206 148 166 177 192 179 183 201 258 301 303 318 330 349 1 338 8 11 2 11 4 10 10 9 11 4 16 29 15 5 10 3 12 23
252 200 284 220 44 311 200 216 210 184 161 176 176 158 178 199 188 202 244 243 256 290 322 321 336 343 15 25 7 10 9 14 15 13 10 11 17 25 18 9 9 9 5 13
149 240 275 194 214 173 171 266 214 195 167 163 151 160 213 207 199 209 232 236 232 280 288 324 333 352 26 26 19 16 16 16 15 12 10 13 16 19 17 8 7 10 8 6
135 180 228 169 143 131 110 283 177 177 161 153 151 171 208 194 202 206 233 209 230 257 285 312 349 350 29 20 26 21 18 15 14 9 9 12 13 14 12 13 12 8 6 8
206 256 284 140 147 139 128 241 163 171 168 165 175 203 162 183 189 201 216 214 240 257 245 320 339 339 7 11 27 35 20 13 15 12 15 13 15 18 13 14 16 15 17 13
187 180 278 144 120 173 182 146 161 167 174 177 177 173 175 179 193 194 201 225 233 247 236 311 326 326 335 8 23 44 23 11 14 15 20 21 20 24 22 21 24 24 21 23
180 211 140 183 204 203 175 167 170 173 181 181 183 184 184 190 199 199 202 223 221 231 209 239 297 305 329 351 14 42 25 8 10 12 17 26 29 30 32 30 29 29 26 24
74 213 190 201 209 202 193 190 179 187 183 189 190 185 185 193 202 204 211 227 221 223 192 234 258 301 320 338 3 32 29 8 8 12 17 20 27 26 29 31 31 28 25 24
254 211 152 225 219 215 195 190 182 186 189 192 189 188 189 194 206 202 215 232 224 215 213 227 222 284 297 308 299 343 30 358 3 9 13 15 20 22 23 24 23 22 20 19
213 207 186 212 221 217 202 195 194 188 183 191 196 190 190 197 208 209 218 231 225 214 222 227 222 235 276 281 266 292 341 344 346 360 7 8 13 16 20 22 21 19 16 13
222 201 201 211 207 207 203 197 197 195 192 189 194 196 194 197 207 205 217 233 225 221 217 222 226 219 251 255 252 261 314 328 326 340 348 353 3 7 12 26 20 20 16 14
233 220 195 203 194 200 202 196 194 196 193 194 196 197 198 202 203 216 227 231 225 217 217 225 228 230 238 234 246 259 293 295 307 317 329 344 347 358 3 7 10 19 20 17
229 230 233 226 210 196 195 191 189 191 193 191 199 202 201 203 207 212 227 236 228 221 217 224 227 233 240 229 233 251 275 294 308 310 315 327 334 346 350 349 354 355 2 16
230 224 221 222 208 198 194 194 197 195 197 195 197 201 204 205 209 211 226 234 224 222 216 221 229 236 241 238 230 246 261 279 289 306 310 319 327 327 330 333 338 343 351 357
204 207 213 216 211 205 207 207 205 204 201 200 199 200 200 203 207 212 222 232 230 219 221 220 228 243 243 240 251 248 256 271 284 297 302 309 318 322 323 323 326 336 344 343
237 245 245 243 221 211 208 209 205 206 207 204 197 199 200 206 209 211 219 228 232 221 223 220 223 233 244 239 243 261 264 268 280 289 291 300 314 312 316 319 328 336 336 337
239 239 242 235 230 223 216 211 207 206 205 204 198 200 202 204 207 210 217 224 227 225 223 218 225 229 234 241 247 247 262 269 276 286 294 302 300 306 311 317 323 327 325 330
236 235 233 232 226 221 215 213 208 206 203 202 200 199 198 199 205 208 214 223 233 235 219 223 220 223 226 238 252 245 264 276 283 285 291 293 297 305 306 312 318 319 322 331
234 230 227 226 224 217 214 213 206 205 201 200 201 200 199 199 204 207 210 218 222 225 220 216 213 210 225 238 254 251 262 270 280 289 295 298 298 301 303 306 311 318 322 324
230 227 224 221 217 211 209 207 205 204 201 199 198 199 198 198 201 204 210 223 222 226 218 212 210 211 222 240 246 250 258 275 289 298 301 303 305 306 307 312 318 321 324 325
230 224 221 216 215 210 203 202 204 205 202 200 197 197 200 200 202 202 202 207 211 220 211 205 205 215 223 231 231 246 260 277 302 312 318 320 321 321 322 325 329 330 329 331
225 216 215 210 207 202 198 200 203 203 203 201 200 201 198 195 197 201 204 202 203 209 208 204 202 202 213 200 218 222 232 264 293 307 314 323 332 337 338 339 341 342 342 341
219 210 207 204 204 206 203 200 197 198 197 198 199 200 200 202 207 201 195 197 200 204 204 204 188 181 171 178 181 181 191 218 340 352 359 2 6 7 7 5 3 1 356 353
212 209 210 210 208 203 201 199 198 195 194 194 196 197 197 198 199 200 197 195 198 200 199 196 184 163 161 160 156 151 134 98 81 70 53 40 36 31 27 22 18 13 11 9
211 207 202 200 202 204 204 202 201 198 197 198 196 195 197 196 196 197 196 196 197 197 195 190 181 170 161 152 145 138 124 109 98 84 66 53 45 42 36 31 26 23 21 18
Wind_Speed_850mb
10 10 6 8 11 18 16 15 7 7 10 13 13 13 13 13 8 2 6 9 10 17 24 16 27 31 32 34 40 40 45 45 49 47 46 48 38 48 52 53 42 47 42 48
7 12 8 10 16 17 22 18 24 28 27 17 23 17 15 18 10 2 5 6 8 15 21 16 25 29 28 33 38 38 42 42 45 47 46 53 33 38 49 50 49 53 46 40
5 7 9 15 25 23 13 16 11 12 7 24 11 16 17 19 14 7 5 5 7 13 17 17 20 24 21 28 35 37 39 40 45 47 46 48 43 43 46 52 43 52 58 49
6 2 5 4 6 2 21 12 24 6 14 20 10 16 16 21 20 11 9 5 5 14 11 14 10 16 15 20 27 32 36 39 43 46 46 42 43 44 45 47 52 43 53 58
4 6 10 4 8 11 14 13 29 18 23 24 19 12 17 25 23 17 10 7 8 11 15 12 10 13 14 17 22 28 34 38 40 44 43 44 42 42 43 42 44 51 47 53
3 5 10 3 10 7 8 9 16 36 31 38 28 5 7 37 22 12 8 8 12 16 9 5 11 10 13 14 20 26 33 36 37 40 40 43 42 41 40 38 42 38 45 42
6 6 13 9 25 18 5 11 28 38 45 49 15 12 30 30 22 15 10 11 13 14 6 4 9 8 9 11 16 23 28 31 32 35 38 39 39 40 45 39 36 40 37 46
6 4 16 41 15 14 8 19 35 37 46 45 27 27 27 25 22 14 11 11 10 14 5 4 9 9 8 8 11 19 25 26 27 30 31 37 39 38 44 44 44 45 44 45
18 12 4 66 5 35 21 30 36 40 41 44 39 31 29 26 22 17 14 15 16 16 10 2 12 10 8 6 7 15 22 22 24 26 27 29 36 39 43 46 49 51 52 53
4 9 20 46 34 25 27 26 35 36 41 44 39 35 31 27 24 19 17 16 19 18 13 15 11 9 8 6 5 9 15 18 21 20 23 24 28 34 40 45 47 49 51 54
10 6 8 28 62 46 36 32 38 38 41 42 38 36 32 29 25 23 21 18 20 19 20 16 9 9 9 5 3 5 7 11 15 17 21 23 25 28 31 35 41 46 48 49
13 28 16 13 40 60 53 50 48 47 47 42 40 38 34 28 25 25 24 20 20 22 21 16 12 9 10 6 5 5 5 9 12 15 17 19 21 23 26 29 33 37 42 43
8 19 26 11 16 47 56 56 52 49 43 49 44 40 35 30 25 23 28 23 20 23 22 20 14 11 12 9 8 4 8 9 11 13 15 18 19 23 27 25 29 33 36 38
40 27 15 26 26 46 49 55 52 48 46 45 44 40 37 30 25 24 26 19 20 22 23 24 20 14 13 10 10 7 8 10 13 14 15 17 20 20 22 26 26 27 28 33
50 48 37 24 28 48 51 60 62 60 58 55 50 44 42 35 27 23 25 21 21 21 22 23 23 18 15 14 14 10 11 12 14 16 17 17 18 19 21 21 22 24 24 25
53 49 39 32 43 54 62 68 70 70 66 61 58 52 43 33 26 23 26 23 23 23 23 24 24 22 18 16 15 14 14 14 13 14 17 18 19 20 20 22 23 26 29 32
49 48 52 54 60 68 75 73 74 73 70 67 61 54 46 39 32 27 25 22 22 22 24 25 23 21 18 15 14 15 15 16 15 14 16 18 18 21 23 24 25 25 28 30
73 66 63 60 73 74 75 75 75 74 73 66 61 59 52 46 35 28 26 23 22 23 24 24 23 22 19 18 17 13 14 15 16 16 17 17 17 18 21 25 29 31 29 28
74 71 69 61 63 68 75 78 80 77 73 69 68 65 54 43 36 29 27 24 23 23 21 23 23 23 20 19 17 15 16 16 16 17 19 18 19 20 22 23 24 25 27 29
69 71 73 61 61 67 73 77 78 82 77 74 71 65 59 49 42 34 28 24 21 20 22 18 19 20 19 18 18 18 16 17 18 19 20 19 20 20 21 23 25 27 28 29
57 66 73 72 68 67 72 76 82 88 84 79 77 71 63 54 43 36 32 27 21 20 19 18 17 17 18 19 18 18 17 17 17 19 20 20 22 24 24 24 25 27 29 29
48 57 66 70 70 74 74 76 82 85 85 83 77 70 66 57 48 39 30 26 21 19 18 16 18 18 16 18 19 17 15 16 16 17 19 20 21 23 24 26 28 28 30 31
42 48 60 70 76 77 76 81 85 87 88 87 83 77 72 61 52 47 39 30 23 22 19 17 15 13 15 12 13 13 13 11 12 15 17 20 22 24 26 27 27 26 28 29
38 45 55 63 69 74 82 85 87 87 85 84 79 74 71 66 54 43 35 28 24 22 21 18 13 10 9 9 7 6 6 7 10 12 14 17 20 21 21 22 23 24 26 28
37 45 56 67 76 81 83 88 90 88 86 85 82 76 69 61 52 46 38 32 28 25 22 18 13 10 10 9 8 7 5 2 3 5 9 11 14 18 20 22 24 26 27 28
40 46 55 63 73 79 86 90 95 95 94 93 87 81 75 68 58 48 42 36 32 28 24 20 17 16 15 13 11 10 8 9 11 11 13 15 18 19 21 24 25 27 30 31
37 39 45 57 63 72 84 90 95 100 102 100 96 90 83 76 65 54 48 42 37 32 28 24 21 21 20 18 16 14 12 12 11 11 13 17 21 23 24 25 27 30 32 32
Wind_Direction_850mb
295 126 184 250 193 182 209 231 189 214 297 312 125 137 127 153 174 38 337 338 336 335 331 8 4 354 1 3 360 8 6 1 359 5 4 2 21 10 7 17 20 12 19 28
287 127 211 256 235 202 204 240 270 271 283 112 120 135 163 176 168 189 302 332 327 329 332 1 7 346 2 7 2 13 4 4 3 6 9 1 12 24 10 10 3 15 22 28
262 181 265 281 224 195 197 189 198 221 206 148 166 177 192 179 183 201 258 301 303 318 330 349 1 338 8 11 2 11 4 10 10 9 11 4 16 29 15 5 10 3 12 23
252 200 284 220 44 311 200 216 210 184 161 176 176 158 178 199 188 202 244 243 256 290 322 321 336 343 15 25 7 10 9 14 15 13 10 11 17 25 18 9 9 9 5 13
149 240 275 194 214 173 171 266 214 195 167 163 151 160 213 207 199 209 232 236 232 280 288 324 333 352 26 26 19 16 16 16 15 12 10 13 16 19 17 8 7 10 8 6
135 180 228 169 143 131 110 283 177 177 161 153 151 171 208 194 202 206 233 209 230 257 285 312 349 350 29 20 26 21 18 15 14 9 9 12 13 14 12 13 12 8 6 8
206 256 284 140 147 139 128 241 163 171 168 165 175 203 162 183 189 201 216 214 240 257 245 320 339 339 7 11 27 35 20 13 15 12 15 13 15 18 13 14 16 15 17 13
187 180 278 144 120 173 182 146 161 167 174 177 177 173 175 179 193 194 201 225 233 247 236 311 326 326 335 8 23 44 23 11 14 15 20 21 20 24 22 21 24 24 21 23
180 211 140 183 204 203 175 167 170 173 181 181 183 184 184 190 199 199 202 223 221 231 209 239 297 305 329 351 14 42 25 8 10 12 17 26 29 30 32 30 29 29 26 24
74 213 190 201 209 202 193 190 179 187 183 189 190 185 185 193 202 204 211 227 221 223 192 234 258 301 320 338 3 32 29 8 8 12 17 20 27 26 29 31 31 28 25 24
254 211 152 225 219 215 195 190 182 186 189 192 189 188 189 194 206 202 215 232 224 215 213 227 222 284 297 308 299 343 30 358 3 9 13 15 20 22 23 24 23 22 20 19
213 207 186 212 221 217 202 195 194 188 183 191 196 190 190 197 208 209 218 231 225 214 222 227 222 235 276 281 266 292 341 344 346 360 7 8 13 16 20 22 21 19 16 13
222 201 201 211 207 207 203 197 197 195 192 189 194 196 194 197 207 205 217 233 225 221 217 222 226 219 251 255 252 261 314 328 326 340 348 353 3 7 12 26 20 20 16 14
233 220 195 203 194 200 202 196 194 196 193 194 196 197 198 202 203 216 227 231 225 217 217 225 228 230 238 234 246 259 293 295 307 317 329 344 347 358 3 7 10 19 20 17
229 230 233 226 210 196 195 191 189 191 193 191 199 202 201 203 207 212 227 236 228 221 217 224 227 233 240 229 233 251 275 294 308 310 315 327 334 346 350 349 354 355 2 16
230 224 221 222 208 198 194 194 197 195 197 195 197 201 204 205 209 211 226 234 224 222 216 221 229 236 241 238 230 246 261 279 289 306 310 319 327 327 330 333 338 343 351 357
204 207 213 216 211 205 207 207 205 204 201 200 199 200 200 203 207 212 222 232 230 219 221 220 228 243 243 240 251 248 256 271 284 297 302 309 318 322 323 323 326 336 344 343
237 245 245 243 221 211 208 209 205 206 207 204 197 199 200 206 209 211 219 228 232 221 223 220 223 233 244 239 243 261 264 268 280 289 291 300 314 312 316 319 328 336 336 337
239 239 242 235 230 223 216 211 207 206 205 204 198 200 202 204 207 210 217 224 227 225 223 218 225 229 234 241 247 247 262 269 276 286 294 302 300 306 311 317 323 327 325 330
236 235 233 232 226 221 215 213 208 206 203 202 200 199 198 199 205 208 214 223 233 235 219 223 220 223 226 238 252 245 264 276 283 285 291 293 297 305 306 312 318 319 322 331
234 230 227 226 224 217 214 213 206 205 201 200 201 200 199 199 204 207 210 218 222 225 220 216 213 210 225 238 254 251 262 270 280 289 295 298 298 301 303 306 311 318 322 324
230 227 224 221 217 211 209 207 205 204 201 199 198 199 198 198 201 204 210 223 222 226 218 212 210 211 222 240 246 250 258 275 289 298 301 303 305 306 307 312 318 321 324 325
230 224 221 216 215 210 203 202 204 205 202 200 197 197 200 200 202 202 202 207 211 220 211 205 205 215 223 231 231 246 260 277 302 312 318 320 321 321 322 325 329 330 329 331
225 216 215 210 207 202 198 200 203 203 203 201 200 201 198 195 197 201 204 202 203 209 208 204 202 202 213 200 218 222 232 264 293 307 314 323 332 337 338 339 341 342 342 341
219 210 207 204 204 206 203 200 197 198 197 198 199 200 200 202 207 201 195 197 200 204 204 204 188 181 171 178 181 181 191 218 340 352 359 2 6 7 7 5 3 1 356 353
212 209 210 210 208 203 201 199 198 195 194 194 196 197 197 198 199 200 197 195 198 200 199 196 184 163 161 160 156 151 134 98 81 70 53 40 36 31 27 22 18 13 11 9
211 207 202 200 202 204 204 202 201 198 197 198 196 195 197 196 196 197 196 196 197 197 195 190 181 170 161 152 145 138 124 109 98 84 66 53 45 42 36 31 26 23 21 18